Regional Weather Roundup
Issued by NWS

Home | Current Version | Previous Version | Graphics & Text | Print | Product List | Glossary On
Versions: 1 2 3 4 5 6 7 8 9 10 11 12 13 14 15 16 17 18 19 20 21 22 23 24 25 26 27 28 29 30 31 32 33 34 35 36 37 38 39 40 41 42 43 44 45 46 47 48 49 50
000
ASUS43 KFSD 262010
RWRSD

WEATHER ROUNDUP FOR SOUTH DAKOTA
NATIONAL WEATHER SERVICE SIOUX FALLS SD
300 PM CDT WED JUL 26 2017

NOTE: "FAIR" INDICATES FEW OR NO CLOUDS BELOW 12,000 FEET WITH NO
SIGNIFICANT WEATHER AND/OR OBSTRUCTIONS TO VISIBILITY.


SDZ001>005-009-010-012>017-262100-
NORTHWEST AND NORTH CENTRAL SOUTH DAKOTA

CITY           SKY/WX    TMP DP  RH WIND       PRES   REMARKS
BUFFALO          N/A     89  49  25 S8        30.08F
FAITH            N/A     86  51  29 CALM      30.13F
MOBRIDGE       SUNNY     87  58  37 N9        30.08F
$$

SDZ012>016-024>037-041>051-057-063-072>074-262100-
SOUTHWEST AND SOUTH CENTRAL SOUTH DAKOTA

CITY           SKY/WX    TMP DP  RH WIND       PRES   REMARKS
RAPID CTY ARPT MOSUNNY   82  49  31 NE5       30.18F
PIERRE         SUNNY     89  51  27 E15G21    30.08S
CUSTER         SUNNY     75  42  30 E14G22    30.31S
ELLSWORTH AFB  CLOUDY    82  47  30 NE3       30.19F
PHILIP         MOSUNNY   90  52  27 E12       30.10F
PINE RIDGE     CLOUDY    83  58  42 NE12G23   30.17S
SPEARFISH      FAIR      79  46  31 E12       30.22F
WINNER         FAIR      90  60  36 NE14G25   30.08S
$$

SDZ004>011-016>023-039-040-262100-
NORTHEAST SOUTH DAKOTA

CITY           SKY/WX    TMP DP  RH WIND       PRES   REMARKS
ABERDEEN       MOSUNNY   83  60  45 E8        30.08F
WATERTOWN      MOSUNNY   79  60  52 NE8       30.08S
BROOKINGS      SUNNY     79  60  52 NE8       30.08S
SISSETON         N/A     83  62  49 N12       30.05F
$$

SDZ017-020-022-023-036>040-048>070-262100-
SOUTHEAST SOUTH DAKOTA

CITY           SKY/WX    TMP DP  RH WIND       PRES   REMARKS
SIOUX FALLS    MOSUNNY   84  69  60 NE13      30.04S
HURON          SUNNY     83  61  47 NE10      30.07R
CHAMBERLAIN    MOSUNNY   87  64  45 E10       30.07S
MITCHELL       SUNNY     85  63  47 NE15      30.06R
YANKTON        MOSUNNY   83  69  62 NE13      30.02S
$$

ABBREVIATIONS USED IN REMARKS
   TC - TEMPERATURE IN CELSIUS
  WCI - WIND CHILL INDEX
   HX - HEAT INDEX
  VSB - VISIBILITY





USA.gov is the U.S. government's official web portal to all federal, state and local government web resources and services.